Voltar ao catálogo

STARLINK-34501

AtivoComunicaçõesVLEO
NORAD 64429·PAYLOAD·🇺🇸 United States

Lançado Jun 17, 2025 de Vandenberg Space Force Base

Loading…

Próximas Passagens (próximas 24 horas)

TLE

AtualizadoSource: CelesTrak SupGP

Época: Sep 14, 2026, 21:30 UTC

1 64429C 25129T   26257.89631944 -.00001877  00000+0 -65274-4 0  2579
2 64429  69.9995 315.7638 0002924 275.4174 301.8407 15.29591985    12

Acompanhe STARLINK-34501 em tempo real com AllMySat

Download on the App Store